User: anonymous   Login
Location: Los Gatos B&B
(42.6926°N, 77.0646°W)
Time: 04:44:15
(UTC-04:00)
Language:

Cosmos 2263 Rocket - Orbit

View from above orbital plane
View from above orbital plane
View from above satellite
View from above satellite

Ground track
Ground track

The orbit data is extracted from the following two-line orbital elements,

1 22803U 93059B   18171.49334792 -.00000193  00000-0 -72542-4 0  9999
2 22803  70.9888 193.3237 0017563 192.5272 167.5417 14.16794557280454
Epoch (UTC): 20 June 2018 11:50:25
Eccentricity: 0.0017563
inclination: 70.9888°
perigee height: 823 km
apogee height: 849 km
right ascension of ascending node: 193.3237°
argument of perigee: 192.5272°
revolutions per day: 14.16794557
mean anomaly at epoch: 167.5417°
orbit number at epoch: 28045

The dashed part of the orbit path shows where the satellite is in the earth's shadow,  

DLR